EW8215 Weather Reports


Display with metric or nautical units.
time (UTC)temp
F
wind
direction
speed
MPH
gust
MPH
rain 1hr
in
rain 24hr
in
rain mn
in
humidity
%
barometer
mb
20260507095322 59 40 2.0 3.0 0.00 0.00 0.00 90 1017.1
20260507094820 59 49 3.0 5.0 0.00 0.00 0.00 91 1017.7
20260507094316 59 18 6.0 9.0 0.00 0.00 0.00 91 1017.9
20260507093813 59 106 2.0 3.0 0.00 0.00 0.00 91 1017.2
20260507093312 59 123 1.0 2.0 0.00 0.00 0.00 91 1017.2
20260507092809 59 350 7.0 10.0 0.00 0.00 0.00 91 1016.5
20260507092307 59 56 2.0 3.0 0.00 0.00 0.00 91 1017.1
20260507091802 59 43 3.0 3.0 0.00 0.00 0.00 92 1017.1
20260507091259 59 6 4.0 5.0 0.00 0.00 0.00 92 1016.9
20260507090759 59 137 3.0 5.0 0.00 0.00 0.00 92 1017.1
20260507090256 59 139 1.0 2.0 0.00 0.00 0.00 92 1016.7
20260507085753 59 69 2.0 3.0 0.00 0.00 0.00 92 1016.6
20260507085250 59 134 2.0 3.0 0.00 0.00 0.00 92 1016.5
20260507084747 59 80 2.0 3.0 0.00 0.00 0.00 92 1017.2
20260507084243 59 244 4.0 5.0 0.00 0.00 0.00 92 1016.4
20260507083741 59 82 3.0 3.0 0.00 0.00 0.00 92 1016.6
20260507083237 59 112 0.0 0.0 0.00 0.00 0.00 92 1016.7
20260507082733 59 134 0.0 0.0 0.00 0.00 0.00 91 1016.2
20260507082229 59 51 3.0 5.0 0.00 0.00 0.00 91 1015.5
20260507081726 59 124 4.0 5.0 0.00 0.00 0.00 91 1016.0
20260507081222 59 130 0.0 2.0 0.00 0.00 0.00 91 1016.5
20260507080719 59 81 4.0 7.0 0.00 0.00 0.00 91 1016.0
20260507080215 59 103 1.0 2.0 0.00 0.00 0.00 91 1015.8
20260507075711 59 71 4.0 7.0 0.00 0.00 0.00 91 1016.0
20260507075207 59 71 6.0 10.0 0.00 0.00 0.00 90 1016.1
20260507074703 59 138 2.0 3.0 0.00 0.00 0.00 90 1016.0
20260507074202 59 96 2.0 3.0 0.00 0.00 0.00 90 1016.2
20260507073658 59 140 2.0 2.0 0.00 0.00 0.00 90 1016.1
20260507073154 59 109 1.0 2.0 0.00 0.00 0.00 90 1016.1
20260507072652 59 88 2.0 2.0 0.00 0.00 0.00 90 1016.1
20260507072149 59 86 6.0 7.0 0.00 0.00 0.00 90 1015.7
20260507071647 59 88 5.0 9.0 0.00 0.00 0.00 90 1015.6
20260507071143 59 68 7.0 9.0 0.00 0.00 0.00 89 1015.6
20260507070640 59 40 4.0 5.0 0.00 0.00 0.00 89 1016.1
20260507070137 59 61 4.0 5.0 0.00 0.00 0.00 89 1016.1
20260507065633 59 65 2.0 2.0 0.00 0.00 0.00 89 1016.2
20260507065130 59 80 2.0 3.0 0.00 0.00 0.00 89 1016.1
20260507064628 59 78 3.0 5.0 0.00 0.00 0.00 89 1016.3
20260507064127 59 84 2.0 3.0 0.00 0.00 0.00 89 1016.3
20260507063624 59 100 4.0 5.0 0.00 0.00 0.00 88 1016.3
20260507063121 59 93 4.0 5.0 0.00 0.00 0.00 88 1016.2
20260507062618 59 71 3.0 3.0 0.00 0.00 0.00 88 1016.4
20260507062115 59 78 4.0 5.0 0.00 0.00 0.00 88 1016.3
20260507061613 59 93 2.0 3.0 0.00 0.00 0.00 88 1016.0
20260507061110 60 130 3.0 3.0 0.00 0.00 0.00 88 1016.1
20260507060608 60 107 1.0 2.0 0.00 0.00 0.00 88 1016.0
20260507060104 60 54 7.0 9.0 0.00 0.00 0.00 88 1015.7
20260507055559 60 91 3.0 3.0 0.00 0.00 0.00 87 1015.8
20260507055056 60 62 5.0 7.0 0.00 0.00 0.00 87 1016.0
20260507054552 60 123 3.0 3.0 0.00 0.00 0.00 86 1016.1
20260507054049 60 44 4.0 9.0 0.00 0.00 0.00 86 1016.2
20260507053547 60 127 4.0 7.0 0.00 0.00 0.00 86 1016.3
20260507053046 60 109 0.0 0.0 0.00 0.00 0.00 86 1016.0
20260507052543 60 105 3.0 5.0 0.00 0.00 0.00 86 1015.8
20260507052039 61 70 6.0 9.0 0.00 0.00 0.00 85 1016.0
20260507051537 61 111 3.0 3.0 0.00 0.00 0.00 85 1016.3
20260507051034 61 43 4.0 7.0 0.00 0.00 0.00 85 1016.4
20260507050530 61 52 3.0 5.0 0.00 0.00 0.00 85 1016.6
20260507050027 61 129 2.0 5.0 0.00 0.01 0.01 85 1016.5
20260507045524 61 59 7.0 9.0 0.00 0.01 0.01 85 1016.1
20260507045021 61 25 4.0 5.0 0.00 0.01 0.01 85 1016.1
20260507044518 61 118 5.0 9.0 0.00 0.01 0.01 85 1016.2
20260507044014 61 124 2.0 3.0 0.00 0.01 0.01 86 1016.3
20260507043510 62 135 2.0 2.0 0.00 0.01 0.01 86 1016.6
20260507043008 62 130 2.0 2.0 0.00 0.01 0.01 86 1016.8
20260507042503 62 128 2.0 3.0 0.00 0.01 0.01 85 1016.6
20260507041959 62 73 4.0 5.0 0.00 0.01 0.01 86 1016.5
20260507041456 62 146 0.0 0.0 0.00 0.01 0.01 86 1016.6
20260507040953 62 83 5.0 5.0 0.00 0.01 0.01 86 1016.5
20260507040449 62 167 3.0 5.0 0.00 0.01 0.01 86 1016.1
20260507035945 62 330 4.0 5.0 0.00 0.01 0.01 86 1015.9
20260507035442 62 145 2.0 2.0 0.00 0.01 0.01 85 1016.2
20260507034938 62 115 3.0 3.0 0.00 0.01 0.01 86 1015.9
20260507034435 62 111 3.0 5.0 0.00 0.01 0.01 85 1016.3
20260507033934 62 117 1.0 2.0 0.00 0.01 0.01 86 1016.3
20260507033431 62 136 3.0 5.0 0.00 0.01 0.01 85 1015.9
20260507032928 62 125 2.0 2.0 0.00 0.01 0.01 85 1015.8
20260507032425 62 114 3.0 5.0 0.00 0.01 0.01 84 1015.6
20260507031921 62 124 3.0 3.0 0.00 0.01 0.01 84 1015.8
20260507031417 62 15 5.0 7.0 0.00 0.01 0.01 84 1016.2
20260507030914 62 342 4.0 5.0 0.00 0.01 0.01 85 1016.4
20260507030412 62 8 4.0 5.0 0.00 0.01 0.01 85 1016.3
20260507025908 62 178 3.0 3.0 0.00 0.01 0.01 86 1015.7
20260507025406 62 62 5.0 7.0 0.00 0.01 0.01 86 1015.3
20260507024904 62 138 3.0 3.0 0.00 0.01 0.01 86 1015.5
20260507024400 62 137 2.0 3.0 0.00 0.01 0.01 86 1015.5
20260507023856 62 339 5.0 5.0 0.00 0.01 0.01 86 1015.6
20260507023353 62 125 2.0 3.0 0.00 0.01 0.01 86 1015.5
20260507022851 62 61 0.0 0.0 0.00 0.01 0.01 85 1015.6
20260507022347 62 96 4.0 5.0 0.00 0.01 0.01 85 1015.5
20260507021843 62 4 5.0 7.0 0.00 0.01 0.01 85 1015.5
20260507021338 62 79 4.0 5.0 0.00 0.01 0.01 85 1015.4
20260507020837 61 68 3.0 3.0 0.00 0.01 0.01 85 1015.0
20260507020333 61 335 7.0 10.0 0.00 0.01 0.01 85 1015.2
20260507015830 61 281 5.0 5.0 0.00 0.01 0.01 85 1014.8
20260507015328 61 41 6.0 7.0 0.00 0.01 0.01 85 1014.8
20260507014825 61 104 4.0 5.0 0.00 0.01 0.01 85 1014.8
20260507014321 61 14 7.0 7.0 0.00 0.01 0.01 85 1014.7
20260507013818 61 359 6.0 7.0 0.00 0.01 0.01 85 1014.4
20260507013315 61 27 4.0 5.0 0.00 0.01 0.01 85 1014.5
20260507012813 61 350 6.0 9.0 0.00 0.01 0.01 85 1014.3
20260507012308 62 40 4.0 5.0 0.00 0.01 0.01 85 1014.5
20260507011806 62 31 5.0 7.0 0.00 0.01 0.01 85 1014.2
20260507011302 62 0 7.0 9.0 0.00 0.01 0.01 84 1014.2
20260507010801 62 118 3.0 3.0 0.00 0.01 0.01 85 1014.1
20260507010258 62 323 5.0 7.0 0.00 0.01 0.01 84 1014.1
20260507005755 62 24 5.0 7.0 0.00 0.01 0.01 84 1013.9
20260507005251 62 326 4.0 7.0 0.00 0.01 0.01 84 1014.2
20260507004748 62 1 3.0 3.0 0.00 0.01 0.01 84 1013.9
20260507004246 62 6 6.0 7.0 0.00 0.01 0.01 84 1013.8
20260507003742 62 356 5.0 5.0 0.00 0.01 0.01 84 1013.7
20260507003237 62 85 5.0 7.0 0.00 0.01 0.01 83 1013.4
20260507002734 62 16 5.0 7.0 0.00 0.01 0.01 83 1013.6
20260507002230 62 4 8.0 9.0 0.00 0.01 0.01 83 1013.4
20260507001727 62 38 11.0 14.0 0.00 0.01 0.01 83 1013.6
20260507001224 62 69 5.0 7.0 0.00 0.01 0.01 83 1013.5
20260507000720 62 88 4.0 5.0 0.00 0.01 0.01 84 1013.4
20260507000216 62 341 7.0 9.0 0.00 0.01 0.01 83 1013.2
20260506235713 62 340 6.0 7.0 0.00 0.01 0.01 83 1013.2
20260506235208 62 0 8.0 10.0 0.00 0.01 0.01 83 1013.5
20260506234706 62 349 9.0 10.0 0.00 0.01 0.01 83 1013.4
20260506234203 62 55 6.0 9.0 0.00 0.01 0.01 83 1013.6
20260506233700 62 356 9.0 12.0 0.00 0.01 0.01 83 1013.5
20260506233157 62 336 9.0 12.0 0.00 0.01 0.01 83 1013.5
20260506232653 62 46 4.0 5.0 0.00 0.01 0.01 83 1013.3
20260506232148 62 341 10.0 14.0 0.00 0.01 0.01 83 1013.2
20260506231646 62 44 7.0 9.0 0.00 0.01 0.01 83 1012.9
20260506231144 62 26 7.0 10.0 0.00 0.01 0.01 83 1013.2
20260506230641 62 268 11.0 15.0 0.00 0.01 0.01 83 1013.3
20260506230137 62 339 8.0 10.0 0.00 0.01 0.01 83 1013.3
20260506225634 62 43 8.0 12.0 0.00 0.01 0.01 83 1013.3
20260506225131 62 99 5.0 7.0 0.00 0.01 0.01 83 1012.9
20260506224627 62 337 9.0 12.0 0.00 0.01 0.01 83 1013.0
20260506224124 62 114 3.0 3.0 0.00 0.01 0.01 84 1013.3
20260506223620 62 359 4.0 7.0 0.00 0.01 0.01 84 1013.0
20260506223116 61 0 6.0 9.0 0.00 0.01 0.01 84 1013.3
20260506222614 61 35 6.0 10.0 0.00 0.01 0.01 83 1013.2
20260506222110 61 344 7.0 12.0 0.00 0.01 0.01 84 1013.2
20260506221608 61 353 14.0 17.0 0.00 0.01 0.01 83 1013.1
20260506221106 61 338 7.0 10.0 0.00 0.01 0.01 83 1013.2
20260506220601 61 338 7.0 9.0 0.00 0.01 0.01 84 1013.3
20260506220057 61 314 10.0 12.0 0.00 0.01 0.01 83 1013.2
20260506215554 61 45 4.0 5.0 0.00 0.01 0.01 84 1013.2
20260506215049 61 10 9.0 10.0 0.00 0.01 0.01 83 1013.2
20260506214547 61 3 12.0 15.0 0.00 0.01 0.01 83 1013.3
20260506214044 62 40 12.0 17.0 0.00 0.01 0.01 83 1013.4
20260506213542 62 324 9.0 10.0 0.00 0.01 0.01 83 1013.4
20260506213039 62 116 5.0 7.0 0.00 0.01 0.01 83 1013.3
20260506212535 62 3 7.0 9.0 0.00 0.01 0.01 82 1013.5
20260506212030 62 333 5.0 7.0 0.00 0.01 0.01 82 1013.4
20260506211526 63 118 7.0 9.0 0.00 0.01 0.01 81 1013.4
20260506211024 63 74 7.0 9.0 0.00 0.01 0.01 82 1013.5
20260506210520 62 352 6.0 9.0 0.00 0.01 0.01 81 1013.4
20260506210017 62 345 6.0 9.0 0.00 0.01 0.01 81 1013.5
20260506205514 63 22 12.0 15.0 0.00 0.01 0.01 80 1013.6
20260506205009 63 17 11.0 15.0 0.00 0.01 0.01 80 1013.6
20260506204508 63 356 11.0 12.0 0.00 0.01 0.01 80 1013.5
20260506204004 63 326 8.0 12.0 0.00 0.01 0.01 81 1013.5
20260506203502 63 322 12.0 14.0 0.00 0.01 0.01 79 1013.5
20260506202958 63 337 14.0 21.0 0.00 0.01 0.01 79 1013.6
20260506202456 64 331 14.0 21.0 0.00 0.01 0.01 79 1013.5
20260506201952 64 28 6.0 9.0 0.00 0.01 0.01 79 1013.3
20260506201449 64 352 10.0 15.0 0.00 0.01 0.01 78 1013.2
20260506200941 64 350 11.0 12.0 0.00 0.01 0.01 78 1013.2
20260506200437 64 1 11.0 15.0 0.00 0.01 0.01 79 1013.0
20260506195933 64 310 9.0 10.0 0.00 0.01 0.01 79 1013.4
20260506195431 65 325 14.0 21.0 0.00 0.01 0.01 79 1013.6
20260506194927 65 330 13.0 15.0 0.00 0.01 0.01 78 1013.3
20260506194424 65 319 9.0 15.0 0.00 0.01 0.01 79 1013.2
20260506193921 66 351 13.0 19.0 0.00 0.01 0.01 78 1013.1
20260506193418 66 346 12.0 14.0 0.00 0.01 0.01 79 1013.0
20260506192914 67 338 13.0 17.0 0.00 0.01 0.01 78 1013.0
20260506192411 66 28 13.0 15.0 0.00 0.01 0.01 79 1012.7
20260506191908 67 358 12.0 15.0 0.00 0.01 0.01 79 1013.2
20260506191404 67 343 14.0 17.0 0.00 0.01 0.01 78 1012.9
20260506190901 68 320 11.0 15.0 0.00 0.01 0.01 80 1012.9
20260506190357 68 15 4.0 5.0 0.00 0.01 0.01 79 1012.8
20260506185854 68 317 8.0 10.0 0.00 0.01 0.01 80 1012.9
20260506185352 68 117 6.0 9.0 0.00 0.01 0.01 79 1013.1
20260506184848 69 349 13.0 14.0 0.00 0.01 0.01 78 1013.1
20260506184345 69 354 11.0 14.0 0.00 0.01 0.01 76 1012.9
20260506183843 69 23 6.0 9.0 0.00 0.01 0.01 78 1012.9
20260506183338 69 345 5.0 7.0 0.00 0.01 0.01 79 1012.9
20260506182836 69 16 5.0 7.0 0.00 0.01 0.01 78 1012.9
20260506182333 69 314 10.0 14.0 0.00 0.01 0.01 78 1012.7
20260506181830 69 234 3.0 3.0 0.00 0.01 0.01 78 1012.7
20260506181328 69 18 6.0 7.0 0.00 0.01 0.01 78 1012.7
20260506180825 69 171 6.0 7.0 0.00 0.01 0.01 80 1012.6
20260506180321 69 168 1.0 2.0 0.00 0.01 0.01 78 1012.6
20260506175817 69 119 2.0 2.0 0.00 0.01 0.01 80 1012.5
20260506175314 69 125 0.0 0.0 0.00 0.01 0.01 79 1012.4
20260506174812 68 79 6.0 9.0 0.00 0.01 0.01 80 1012.4
20260506174309 67 113 0.0 0.0 0.00 0.01 0.01 81 1012.6
20260506173806 67 16 4.0 5.0 0.00 0.01 0.01 81 1012.4
20260506173303 67 137 0.0 0.0 0.00 0.01 0.01 79 1012.6
20260506172800 67 132 5.0 9.0 0.00 0.01 0.01 81 1012.6
20260506172256 67 124 2.0 3.0 0.00 0.01 0.01 82 1012.6
20260506171754 66 49 6.0 10.0 0.00 0.01 0.01 81 1012.4
20260506171251 65 141 1.0 2.0 0.00 0.01 0.01 84 1012.7
20260506170749 64 132 4.0 5.0 0.00 0.01 0.01 84 1012.6
20260506170245 63 82 4.0 7.0 0.00 0.01 0.01 86 1012.6
20260506165743 63 81 2.0 3.0 0.00 0.01 0.01 86 1012.5
20260506165240 62 47 2.0 3.0 0.00 0.01 0.01 89 1012.3
20260506164737 61 111 0.0 2.0 0.00 0.01 0.01 92 1013.0
20260506164234 59 108 2.0 3.0 0.00 0.01 0.01 94 1012.1
20260506163731 58 110 2.0 2.0 0.00 0.01 0.01 95 1012.5
20260506163225 58 95 8.0 10.0 0.00 0.01 0.01 94 1013.0
20260506162722 58 105 2.0 3.0 0.00 0.01 0.01 95 1014.5
20260506162220 58 322 4.0 7.0 0.00 0.01 0.01 95 1014.5
20260506161717 58 0 7.0 9.0 0.00 0.01 0.01 95 1014.7
20260506161214 59 0 8.0 9.0 0.00 0.01 0.01 95 1015.0
20260506160712 59 357 12.0 21.0 0.00 0.01 0.01 95 1014.9
20260506160208 59 308 8.0 10.0 0.00 0.01 0.01 95 1015.5
20260506155706 59 23 13.0 15.0 0.00 0.01 0.01 95 1015.3
20260506155203 60 347 12.0 14.0 0.00 0.01 0.01 95 1014.7
20260506153305 61 352 9.0 12.0 0.07 0.01 0.01 95 1014.3
20260506152802 61 82 11.0 14.0 0.07 0.01 0.01 95 1014.0
20260506152259 62 355 10.0 14.0 0.00 0.00 0.00 94 1013.8
20260506151758 62 353 4.0 7.0 0.00 0.00 0.00 93 1013.6
20260506151254 62 344 3.0 7.0 0.00 0.00 0.00 93 1013.5
20260506150751 62 41 4.0 7.0 0.00 0.00 0.00 92 1013.1
20260506150248 62 319 10.0 14.0 0.00 0.00 0.00 92 1012.9
20260506145745 62 72 6.0 9.0 0.00 0.00 0.00 93 1012.6
20260506145241 63 113 2.0 3.0 0.00 0.00 0.00 93 1012.6
20260506144739 63 84 3.0 5.0 0.00 0.00 0.00 93 1012.7
20260506144236 63 94 5.0 7.0 0.00 0.00 0.00 93 1012.9
20260506143733 64 291 12.0 15.0 0.00 0.00 0.00 93 1012.3
20260506143231 64 20 8.0 10.0 0.00 0.00 0.00 93 1012.4
20260506142729 65 354 8.0 10.0 0.00 0.00 0.00 92 1011.9
20260506142227 65 3 9.0 10.0 0.00 0.00 0.00 92 1011.9
20260506141725 66 11 14.0 19.0 0.00 0.00 0.00 92 1011.8
20260506141223 66 80 3.0 5.0 0.00 0.00 0.00 92 1011.7
20260506140720 66 93 8.0 12.0 0.00 0.00 0.00 92 1011.8
20260506140217 67 330 10.0 14.0 0.00 0.00 0.00 92 1011.5
20260506135713 68 333 9.0 17.0 0.00 0.00 0.00 91 1011.3
20260506135210 69 346 6.0 9.0 0.00 0.00 0.00 90 1011.2
20260506134707 72 20 10.0 12.0 0.00 0.00 0.00 88 1011.0
20260506134203 77 141 1.0 2.0 0.00 0.00 0.00 90 1011.1
20260506133700 77 135 2.0 2.0 0.00 0.00 0.00 90 1010.9
20260506133157 76 146 2.0 2.0 0.00 0.00 0.00 91 1010.5
20260506132654 76 120 4.0 5.0 0.00 0.00 0.00 91 1010.5
20260506132151 76 131 6.0 7.0 0.00 0.00 0.00 91 1010.3
20260506131649 76 138 3.0 3.0 0.00 0.00 0.00 92 1010.3
20260506131145 76 160 3.0 3.0 0.00 0.00 0.00 92 1010.2
20260506130641 75 168 4.0 5.0 0.00 0.00 0.00 92 1010.3
20260506130139 75 133 5.0 5.0 0.00 0.00 0.00 93 1010.2
20260506125637 75 120 5.0 7.0 0.00 0.00 0.00 94 1009.9
20260506125134 74 144 2.0 3.0 0.00 0.00 0.00 95 1010.1
20260506124632 74 150 2.0 2.0 0.00 0.00 0.00 95 1010.0
20260506124130 74 138 2.0 2.0 0.00 0.00 0.00 95 1010.0
20260506123627 73 155 1.0 2.0 0.00 0.00 0.00 96 1010.1
20260506123126 73 152 0.0 0.0 0.00 0.00 0.00 96 1010.0
20260506122622 73 149 0.0 0.0 0.00 0.00 0.00 96 1010.0
20260506122120 73 148 0.0 0.0 0.00 0.00 0.00 96 1010.0
20260506121617 73 149 0.0 0.0 0.00 0.00 0.00 95 1009.9
20260506121114 73 149 0.0 0.0 0.00 0.00 0.00 95 1010.0
20260506120612 73 149 0.0 0.0 0.00 0.00 0.00 95 1009.9
20260506120109 73 149 0.0 0.0 0.00 0.00 0.00 95 1009.8
20260506115607 73 149 0.0 0.0 0.00 0.00 0.00 94 1009.8
20260506115105 74 149 0.0 0.0 0.00 0.00 0.00 94 1009.9
20260506114602 74 156 0.0 0.0 0.00 0.00 0.00 94 1009.8
20260506114100 74 156 0.0 0.0 0.00 0.00 0.00 94 1010.0
20260506113558 74 156 0.0 0.0 0.00 0.00 0.00 94 1010.0
20260506113055 74 156 0.0 0.0 0.00 0.00 0.00 94 1010.0
20260506112551 74 145 0.0 0.0 0.00 0.00 0.00 93 1009.9
20260506112049 74 144 0.0 0.0 0.00 0.00 0.00 93 1009.8
20260506111547 74 145 0.0 0.0 0.00 0.00 0.00 93 1010.0
20260506111044 74 145 0.0 0.0 0.00 0.00 0.00 93 1009.8
20260506110541 74 144 0.0 0.0 0.00 0.00 0.00 93 1009.7
20260506110038 74 155 0.0 0.0 0.00 0.00 0.00 93 1009.8
20260506105534 74 155 0.0 0.0 0.00 0.00 0.00 93 1009.7
20260506105032 74 155 0.0 0.0 0.00 0.00 0.00 92 1009.7
20260506104530 75 155 0.0 0.0 0.00 0.00 0.00 92 1009.7
20260506104027 75 164 0.0 0.0 0.00 0.00 0.00 92 1009.5
20260506103524 75 166 0.0 2.0 0.00 0.00 0.00 92 1009.5
20260506103021 75 161 0.0 2.0 0.00 0.00 0.00 92 1009.3
20260506102520 75 158 0.0 0.0 0.00 0.00 0.00 92 1009.3
20260506102016 75 153 0.0 0.0 0.00 0.00 0.00 91 1009.4
20260506101513 75 163 2.0 3.0 0.00 0.00 0.00 91 1009.1
20260506101010 75 161 0.0 0.0 0.00 0.00 0.00 91 1009.2
20260506100508 75 155 0.0 0.0 0.00 0.00 0.00 91 1008.9
20260506100006 75 152 2.0 2.0 0.00 0.00 0.00 91 1008.9